| time (UTC) | temp C | wind direction | speed KPH | gust KPH | rain 1hr cm | rain 24hr cm | rain mn cm | humidity % | barometer mb |
| 20260508153645 | 20 | 98 | 1.6 | 0.0 | 0.00 | 0.00 | 0.00 | 48 | 1011.8 |
| 20260508153152 | 20 | 69 | 1.6 | 0.0 | 0.00 | 0.00 | 0.00 | 47 | 1011.8 |
| 20260508152643 | 19 | 60 | 1.6 | 0.0 | 0.00 | 0.00 | 0.00 | 47 | 1012.1 |
| 20260508152147 | 19 | 56 | 0.0 | 0.0 | 0.00 | 0.00 | 0.00 | 49 | 1012.1 |
| 20260508151656 | 18 | 90 | 1.6 | 0.0 | 0.00 | 0.00 | 0.00 | 50 | 1012.1 |
| 20260508151143 | 18 | 89 | 1.6 | 0.0 | 0.00 | 0.00 | 0.00 | 49 | 1012.2 |
| 20260508150641 | 18 | 335 | 0.0 | 0.0 | 0.00 | 0.00 | 0.00 | 49 | 1012.2 |
| 20260508150144 | 17 | 68 | 0.0 | 0.0 | 0.00 | 0.00 | 0.00 | 51 | 1012.2 |
| 20260508145651 | 17 | 46 | 1.6 | 0.0 | 0.00 | 0.00 | 0.00 | 51 | 1012.2 |
| 20260508145153 | 17 | 32 | 3.2 | 0.0 | 0.00 | 0.00 | 0.00 | 50 | 1012.2 |
| 20260508144655 | 18 | 66 | 4.8 | 0.0 | 0.00 | 0.00 | 0.00 | 49 | 1012.2 |
| 20260508144156 | 18 | 43 | 3.2 | 0.0 | 0.00 | 0.00 | 0.00 | 49 | 1012.1 |
| 20260508143641 | 18 | 36 | 3.2 | 0.0 | 0.00 | 0.00 | 0.00 | 49 | 1012.1 |
| 20260508143152 | 19 | 55 | 1.6 | 0.0 | 0.00 | 0.00 | 0.00 | 48 | 1012.1 |
| 20260508142654 | 20 | 53 | 1.6 | 0.0 | 0.00 | 0.00 | 0.00 | 48 | 1012.3 |
| 20260508142159 | 19 | 95 | 1.6 | 0.0 | 0.00 | 0.00 | 0.00 | 49 | 1012.3 |
| 20260508141642 | 19 | 56 | 1.6 | 0.0 | 0.00 | 0.00 | 0.00 | 49 | 1012.3 |
| 20260508141147 | 18 | 10 | 1.6 | 0.0 | 0.00 | 0.00 | 0.00 | 49 | 1012.2 |
| 20260508140652 | 19 | 53 | 1.6 | 0.0 | 0.00 | 0.00 | 0.00 | 48 | 1012.2 |
| 20260508140158 | 19 | 10 | 1.6 | 0.0 | 0.00 | 0.00 | 0.00 | 50 | 1012.2 |
| 20260508135650 | 20 | 30 | 3.2 | 0.0 | 0.00 | 0.00 | 0.00 | 48 | 1012.3 |
| 20260508135141 | 20 | 69 | 3.2 | 0.0 | 0.00 | 0.00 | 0.00 | 47 | 1012.3 |
| 20260508134646 | 19 | 56 | 1.6 | 0.0 | 0.00 | 0.00 | 0.00 | 50 | 1012.3 |
| 20260508134154 | 18 | 360 | 1.6 | 0.0 | 0.00 | 0.00 | 0.00 | 50 | 1012.6 |
| 20260508133645 | 19 | 15 | 1.6 | 0.0 | 0.00 | 0.00 | 0.00 | 47 | 1012.6 |
| 20260508133149 | 19 | 61 | 1.6 | 0.0 | 0.00 | 0.00 | 0.00 | 51 | 1012.6 |
| 20260508132654 | 18 | 18 | 3.2 | 0.0 | 0.00 | 0.00 | 0.00 | 50 | 1012.4 |
| 20260508132157 | 18 | 26 | 3.2 | 0.0 | 0.00 | 0.00 | 0.00 | 50 | 1012.4 |
| 20260508131658 | 19 | 45 | 3.2 | 0.0 | 0.00 | 0.00 | 0.00 | 53 | 1012.4 |
| 20260508131200 | 18 | 75 | 1.6 | 0.0 | 0.00 | 0.00 | 0.00 | 53 | 1012.9 |
| 20260508130644 | 18 | 32 | 1.6 | 0.0 | 0.00 | 0.00 | 0.00 | 51 | 1012.9 |
| 20260508130153 | 18 | 35 | 1.6 | 0.0 | 0.00 | 0.00 | 0.00 | 52 | 1012.9 |
| 20260508125638 | 17 | 360 | 3.2 | 0.0 | 0.00 | 0.00 | 0.00 | 54 | 1012.9 |
| 20260508125147 | 17 | 61 | 3.2 | 0.0 | 0.00 | 0.00 | 0.00 | 51 | 1012.9 |
| 20260508124649 | 18 | 60 | 1.6 | 0.0 | 0.00 | 0.00 | 0.00 | 52 | 1012.9 |
| 20260508124143 | 18 | 57 | 1.6 | 0.0 | 0.00 | 0.00 | 0.00 | 52 | 1012.9 |
| 20260508123652 | 18 | 340 | 1.6 | 0.0 | 0.00 | 0.00 | 0.00 | 52 | 1012.9 |
| 20260508123158 | 18 | 86 | 1.6 | 0.0 | 0.00 | 0.00 | 0.00 | 52 | 1012.9 |
| 20260508122642 | 18 | 360 | 1.6 | 0.0 | 0.00 | 0.00 | 0.00 | 54 | 1013.1 |
| 20260508122147 | 17 | 55 | 1.6 | 0.0 | 0.00 | 0.00 | 0.00 | 54 | 1013.1 |
| 20260508121652 | 17 | 360 | 1.6 | 0.0 | 0.00 | 0.00 | 0.00 | 53 | 1013.1 |
| 20260508121200 | 18 | 28 | 1.6 | 0.0 | 0.00 | 0.00 | 0.00 | 55 | 1012.8 |
| 20260508120645 | 18 | 12 | 0.0 | 0.0 | 0.00 | 0.00 | 0.00 | 53 | 1012.8 |
| 20260508120150 | 18 | 15 | 1.6 | 0.0 | 0.00 | 0.00 | 0.00 | 53 | 1012.8 |
| 20260508115659 | 18 | 355 | 3.2 | 0.0 | 0.00 | 0.00 | 0.00 | 53 | 1012.7 |
| 20260508115147 | 18 | 117 | 3.2 | 0.0 | 0.00 | 0.00 | 0.00 | 52 | 1012.7 |
| 20260508114656 | 18 | 21 | 1.6 | 0.0 | 0.00 | 0.00 | 0.00 | 54 | 1012.7 |
| 20260508114141 | 18 | 56 | 1.6 | 0.0 | 0.00 | 0.00 | 0.00 | 56 | 1012.8 |
| 20260508113650 | 18 | 56 | 1.6 | 0.0 | 0.00 | 0.00 | 0.00 | 55 | 1012.8 |
| 20260508113142 | 18 | 106 | 3.2 | 0.0 | 0.00 | 0.00 | 0.00 | 55 | 1012.8 |
| 20260508112649 | 18 | 63 | 3.2 | 0.0 | 0.00 | 0.00 | 0.00 | 55 | 1013.1 |
| 20260508112154 | 18 | 360 | 3.2 | 0.0 | 0.00 | 0.00 | 0.00 | 55 | 1013.1 |
| 20260508111656 | 17 | 71 | 3.2 | 0.0 | 0.00 | 0.00 | 0.00 | 56 | 1013.1 |
| 20260508111200 | 17 | 68 | 3.2 | 0.0 | 0.00 | 0.00 | 0.00 | 58 | 1013.1 |
| 20260508110642 | 17 | 79 | 3.2 | 0.0 | 0.00 | 0.00 | 0.00 | 55 | 1013.1 |
| 20260508110200 | 17 | 82 | 3.2 | 0.0 | 0.00 | 0.00 | 0.00 | 57 | 1013.1 |
| 20260508105648 | 17 | 101 | 3.2 | 0.0 | 0.00 | 0.00 | 0.00 | 57 | 1013.3 |
| 20260508105155 | 17 | 29 | 1.6 | 0.0 | 0.00 | 0.00 | 0.00 | 58 | 1013.3 |
| 20260508104637 | 17 | 65 | 1.6 | 0.0 | 0.00 | 0.00 | 0.00 | 58 | 1013.3 |
| 20260508104153 | 17 | 92 | 3.2 | 0.0 | 0.00 | 0.00 | 0.00 | 59 | 1013.4 |
| 20260508103639 | 17 | 79 | 4.8 | 0.0 | 0.00 | 0.00 | 0.00 | 59 | 1013.4 |
| 20260508103157 | 16 | 69 | 4.8 | 0.0 | 0.00 | 0.00 | 0.00 | 60 | 1013.4 |
| 20260508102640 | 16 | 77 | 3.2 | 0.0 | 0.00 | 0.00 | 0.00 | 60 | 1013.4 |
| 20260508102148 | 16 | 13 | 1.6 | 0.0 | 0.00 | 0.00 | 0.00 | 63 | 1013.4 |
| 20260508101658 | 16 | 360 | 1.6 | 0.0 | 0.00 | 0.00 | 0.00 | 62 | 1013.4 |
| 20260508101156 | 16 | 44 | 1.6 | 0.0 | 0.00 | 0.00 | 0.00 | 61 | 1014.3 |
| 20260508100644 | 16 | 9 | 1.6 | 0.0 | 0.00 | 0.00 | 0.00 | 61 | 1014.3 |
| 20260508100149 | 16 | 111 | 1.6 | 0.0 | 0.00 | 0.00 | 0.00 | 61 | 1014.3 |
| 20260508095648 | 16 | 26 | 1.6 | 0.0 | 0.00 | 0.00 | 0.00 | 61 | 1013.6 |
| 20260508095155 | 16 | 57 | 1.6 | 0.0 | 0.00 | 0.00 | 0.00 | 64 | 1013.6 |
| 20260508094642 | 15 | 39 | 1.6 | 0.0 | 0.00 | 0.00 | 0.00 | 65 | 1013.6 |
| 20260508094144 | 15 | 89 | 1.6 | 0.0 | 0.00 | 0.00 | 0.00 | 64 | 1013.4 |
| 20260508093650 | 15 | 49 | 1.6 | 0.0 | 0.00 | 0.00 | 0.00 | 63 | 1013.4 |
| 20260508093158 | 15 | 105 | 1.6 | 0.0 | 0.00 | 0.00 | 0.00 | 65 | 1013.4 |
| 20260508092656 | 15 | 111 | 1.6 | 0.0 | 0.00 | 0.00 | 0.00 | 69 | 1013.6 |
| 20260508092152 | 14 | 113 | 1.6 | 0.0 | 0.00 | 0.00 | 0.00 | 68 | 1013.6 |
| 20260508091644 | 14 | 113 | 1.6 | 0.0 | 0.00 | 0.00 | 0.00 | 68 | 1013.6 |
| 20260508091152 | 13 | 78 | 1.6 | 0.0 | 0.00 | 0.00 | 0.00 | 68 | 1013.7 |
| 20260508090639 | 13 | 62 | 1.6 | 0.0 | 0.00 | 0.00 | 0.00 | 68 | 1013.7 |
| 20260508090139 | 13 | 360 | 1.6 | 0.0 | 0.00 | 0.00 | 0.00 | 70 | 1013.7 |
| 20260508085651 | 13 | 33 | 0.0 | 0.0 | 0.00 | 0.00 | 0.00 | 71 | 1013.4 |
| 20260508085145 | 13 | 32 | 3.2 | 0.0 | 0.00 | 0.00 | 0.00 | 67 | 1013.4 |
| 20260508084639 | 14 | 46 | 1.6 | 0.0 | 0.00 | 0.00 | 0.00 | 68 | 1013.4 |
| 20260508084148 | 13 | 67 | 1.6 | 0.0 | 0.00 | 0.00 | 0.00 | 70 | 1013.7 |
| 20260508083650 | 13 | 86 | 3.2 | 0.0 | 0.00 | 0.00 | 0.00 | 70 | 1013.7 |
| 20260508083150 | 12 | 50 | 3.2 | 0.0 | 0.00 | 0.00 | 0.00 | 71 | 1013.7 |
| 20260508082639 | 12 | 87 | 0.0 | 0.0 | 0.00 | 0.00 | 0.00 | 73 | 1013.6 |
| 20260508082145 | 12 | 61 | 1.6 | 0.0 | 0.00 | 0.00 | 0.00 | 74 | 1013.6 |
| 20260508081648 | 12 | 58 | 1.6 | 0.0 | 0.00 | 0.00 | 0.00 | 73 | 1013.6 |
| 20260508081149 | 12 | 64 | 1.6 | 0.0 | 0.00 | 0.00 | 0.00 | 74 | 1014.0 |
| 20260508080653 | 12 | 100 | 1.6 | 0.0 | 0.00 | 0.00 | 0.00 | 74 | 1014.0 |
| 20260508080155 | 12 | 29 | 1.6 | 0.0 | 0.00 | 0.00 | 0.00 | 75 | 1014.0 |
| 20260508075641 | 11 | 84 | 1.6 | 0.0 | 0.00 | 0.00 | 0.00 | 76 | 1014.0 |
| 20260508075147 | 11 | 32 | 1.6 | 0.0 | 0.00 | 0.00 | 0.00 | 78 | 1014.0 |
| 20260508074638 | 11 | 62 | 1.6 | 0.0 | 0.00 | 0.00 | 0.00 | 76 | 1014.0 |
| 20260508074200 | 11 | 56 | 1.6 | 0.0 | 0.00 | 0.00 | 0.00 | 77 | 1014.2 |
| 20260508073639 | 11 | 77 | 1.6 | 0.0 | 0.00 | 0.00 | 0.00 | 78 | 1014.2 |
| 20260508073144 | 10 | 42 | 0.0 | 0.0 | 0.00 | 0.00 | 0.00 | 79 | 1014.2 |
| 20260508072643 | 10 | 57 | 0.0 | 0.0 | 0.00 | 0.00 | 0.00 | 78 | 1014.1 |
| 20260508072145 | 10 | 10 | 0.0 | 0.0 | 0.00 | 0.00 | 0.00 | 79 | 1014.1 |
| 20260508071653 | 10 | 351 | 0.0 | 0.0 | 0.00 | 0.00 | 0.00 | 79 | 1014.1 |
| 20260508071156 | 10 | 59 | 1.6 | 0.0 | 0.00 | 0.00 | 0.00 | 81 | 1013.9 |
| 20260508070658 | 10 | 5 | 1.6 | 0.0 | 0.00 | 0.00 | 0.00 | 79 | 1013.9 |
| 20260508070147 | 9 | 355 | 0.0 | 0.0 | 0.00 | 0.00 | 0.00 | 82 | 1013.9 |
| 20260508065655 | 8 | 53 | 0.0 | 0.0 | 0.00 | 0.00 | 0.00 | 81 | 1014.1 |
| 20260508065149 | 9 | 56 | 0.0 | 0.0 | 0.00 | 0.00 | 0.00 | 80 | 1014.1 |
| 20260508064652 | 9 | 59 | 0.0 | 0.0 | 0.00 | 0.00 | 0.00 | 80 | 1014.1 |
| 20260508064157 | 9 | 38 | 0.0 | 0.0 | 0.00 | 0.00 | 0.00 | 81 | 1013.9 |
| 20260508063657 | 8 | 21 | 0.0 | 0.0 | 0.00 | 0.00 | 0.00 | 80 | 1013.9 |
| 20260508063138 | 8 | 360 | 0.0 | 0.0 | 0.00 | 0.00 | 0.00 | 79 | 1013.9 |
| 20260508062648 | 8 | 46 | 0.0 | 0.0 | 0.00 | 0.00 | 0.00 | 81 | 1013.8 |
| 20260508062153 | 8 | 49 | 0.0 | 0.0 | 0.00 | 0.00 | 0.00 | 82 | 1013.8 |
| 20260508061651 | 8 | 49 | 0.0 | 0.0 | 0.00 | 0.00 | 0.00 | 83 | 1013.8 |
| 20260508061156 | 8 | 53 | 0.0 | 0.0 | 0.00 | 0.00 | 0.00 | 84 | 1013.9 |
| 20260508060648 | 7 | 46 | 0.0 | 0.0 | 0.00 | 0.00 | 0.00 | 85 | 1013.9 |
| 20260508060152 | 7 | 47 | 0.0 | 0.0 | 0.00 | 0.00 | 0.00 | 85 | 1013.9 |
| 20260508055657 | 7 | 46 | 0.0 | 0.0 | 0.00 | 0.00 | 0.00 | 86 | 1013.8 |
| 20260508055146 | 7 | 46 | 0.0 | 0.0 | 0.00 | 0.00 | 0.00 | 87 | 1013.8 |
| 20260508054652 | 7 | 46 | 0.0 | 0.0 | 0.00 | 0.00 | 0.00 | 87 | 1013.8 |
| 20260508054150 | 6 | 46 | 0.0 | 0.0 | 0.00 | 0.00 | 0.00 | 87 | 1013.0 |
| 20260508053654 | 6 | 46 | 0.0 | 0.0 | 0.00 | 0.00 | 0.00 | 87 | 1013.0 |
| 20260508053142 | 6 | 46 | 0.0 | 0.0 | 0.00 | 0.00 | 0.00 | 87 | 1013.0 |
| 20260508052648 | 6 | 46 | 0.0 | 0.0 | 0.00 | 0.00 | 0.00 | 86 | 1013.0 |
| 20260508052200 | 5 | 46 | 0.0 | 0.0 | 0.00 | 0.00 | 0.00 | 86 | 1013.0 |
| 20260508051650 | 5 | 46 | 0.0 | 0.0 | 0.00 | 0.00 | 0.00 | 86 | 1013.0 |
| 20260508051158 | 5 | 46 | 0.0 | 0.0 | 0.00 | 0.00 | 0.00 | 86 | 1012.8 |
| 20260508050643 | 5 | 360 | 0.0 | 0.0 | 0.00 | 0.00 | 0.00 | 86 | 1012.8 |
| 20260508050147 | 5 | 46 | 0.0 | 0.0 | 0.00 | 0.00 | 0.00 | 86 | 1012.8 |
| 20260508045650 | 5 | 37 | 0.0 | 0.0 | 0.00 | 0.00 | 0.00 | 86 | 1012.9 |
| 20260508045158 | 4 | 44 | 0.0 | 0.0 | 0.00 | 0.00 | 0.00 | 85 | 1012.9 |
| 20260508044659 | 3 | 41 | 0.0 | 0.0 | 0.00 | 0.00 | 0.00 | 85 | 1012.9 |
| 20260508044147 | 3 | 41 | 0.0 | 0.0 | 0.00 | 0.00 | 0.00 | 82 | 1012.8 |
| 20260508043656 | 3 | 41 | 0.0 | 0.0 | 0.00 | 0.00 | 0.00 | 82 | 1012.8 |
| 20260508043142 | 3 | 42 | 0.0 | 0.0 | 0.00 | 0.00 | 0.00 | 81 | 1012.8 |
| 20260508042648 | 3 | 42 | 0.0 | 0.0 | 0.00 | 0.00 | 0.00 | 81 | 1012.6 |
| 20260508042153 | 3 | 41 | 0.0 | 0.0 | 0.00 | 0.00 | 0.00 | 81 | 1012.6 |
| 20260508041655 | 3 | 41 | 0.0 | 0.0 | 0.00 | 0.00 | 0.00 | 81 | 1012.6 |
| 20260508041139 | 3 | 42 | 0.0 | 0.0 | 0.00 | 0.00 | 0.00 | 81 | 1012.5 |
| 20260508040647 | 3 | 41 | 0.0 | 0.0 | 0.00 | 0.00 | 0.00 | 81 | 1012.5 |
| 20260508040156 | 3 | 42 | 0.0 | 0.0 | 0.00 | 0.00 | 0.00 | 81 | 1012.5 |
| 20260508035643 | 3 | 41 | 0.0 | 0.0 | 0.00 | 0.00 | 0.00 | 81 | 1012.4 |
| 20260508035156 | 3 | 42 | 0.0 | 0.0 | 0.00 | 0.00 | 0.00 | 81 | 1012.4 |
| 20260508034642 | 3 | 360 | 0.0 | 0.0 | 0.00 | 0.00 | 0.00 | 81 | 1012.4 |
| 20260508034144 | 3 | 42 | 0.0 | 0.0 | 0.00 | 0.00 | 0.00 | 81 | 1012.3 |
| 20260508033655 | 3 | 41 | 0.0 | 0.0 | 0.00 | 0.00 | 0.00 | 81 | 1012.3 |
| 20260508033144 | 3 | 42 | 0.0 | 0.0 | 0.00 | 0.00 | 0.00 | 81 | 1012.3 |
| 20260508032656 | 3 | 42 | 0.0 | 0.0 | 0.00 | 0.00 | 0.00 | 81 | 1012.1 |
| 20260508032141 | 3 | 41 | 0.0 | 0.0 | 0.00 | 0.00 | 0.00 | 81 | 1012.1 |
| 20260508031655 | 3 | 41 | 0.0 | 0.0 | 0.00 | 0.00 | 0.00 | 81 | 1012.1 |
| 20260508031150 | 4 | 42 | 0.0 | 0.0 | 0.00 | 0.00 | 0.00 | 81 | 1012.1 |
| 20260508030640 | 4 | 41 | 0.0 | 0.0 | 0.00 | 0.00 | 0.00 | 81 | 1012.1 |
| 20260508030153 | 4 | 41 | 0.0 | 0.0 | 0.00 | 0.00 | 0.00 | 81 | 1012.1 |
| 20260508025653 | 4 | 42 | 0.0 | 0.0 | 0.00 | 0.00 | 0.00 | 81 | 1012.1 |
| 20260508025156 | 4 | 42 | 0.0 | 0.0 | 0.00 | 0.00 | 0.00 | 81 | 1012.1 |
| 20260508024641 | 4 | 41 | 0.0 | 0.0 | 0.00 | 0.00 | 0.00 | 81 | 1012.1 |
| 20260508024147 | 4 | 41 | 0.0 | 0.0 | 0.00 | 0.00 | 0.00 | 81 | 1012.1 |
| 20260508023647 | 5 | 42 | 0.0 | 0.0 | 0.00 | 0.00 | 0.00 | 81 | 1012.1 |
| 20260508023144 | 5 | 360 | 0.0 | 0.0 | 0.00 | 0.00 | 0.00 | 82 | 1012.1 |
| 20260508022653 | 5 | 41 | 0.0 | 0.0 | 0.00 | 0.00 | 0.00 | 82 | 1012.1 |
| 20260508022152 | 5 | 42 | 0.0 | 0.0 | 0.00 | 0.00 | 0.00 | 82 | 1012.1 |
| 20260508021658 | 5 | 41 | 0.0 | 0.0 | 0.00 | 0.00 | 0.00 | 82 | 1012.1 |
| 20260508021148 | 5 | 42 | 0.0 | 0.0 | 0.00 | 0.00 | 0.00 | 82 | 1013.0 |
| 20260508020650 | 5 | 42 | 0.0 | 0.0 | 0.00 | 0.00 | 0.00 | 82 | 1013.0 |
| 20260508020155 | 5 | 41 | 0.0 | 0.0 | 0.00 | 0.00 | 0.00 | 82 | 1013.0 |
| 20260508015640 | 5 | 42 | 0.0 | 0.0 | 0.00 | 0.00 | 0.00 | 81 | 1013.3 |
| 20260508015142 | 5 | 41 | 0.0 | 0.0 | 0.00 | 0.00 | 0.00 | 81 | 1013.3 |
| 20260508014645 | 5 | 53 | 0.0 | 0.0 | 0.00 | 0.00 | 0.00 | 81 | 1013.3 |
| 20260508014154 | 5 | 42 | 0.0 | 0.0 | 0.00 | 0.00 | 0.00 | 81 | 1013.2 |
| 20260508013640 | 5 | 42 | 0.0 | 0.0 | 0.00 | 0.00 | 0.00 | 81 | 1013.2 |
| 20260508013202 | 5 | 41 | 0.0 | 0.0 | 0.00 | 0.00 | 0.00 | 81 | 1013.2 |
| 20260508012644 | 5 | 41 | 0.0 | 0.0 | 0.00 | 0.00 | 0.00 | 80 | 1012.9 |
| 20260508012149 | 5 | 42 | 0.0 | 0.0 | 0.00 | 0.00 | 0.00 | 80 | 1012.9 |
| 20260508011653 | 5 | 41 | 0.0 | 0.0 | 0.00 | 0.00 | 0.00 | 80 | 1012.9 |
| 20260508011200 | 5 | 42 | 0.0 | 0.0 | 0.00 | 0.00 | 0.00 | 79 | 1012.5 |
| 20260508010642 | 5 | 42 | 0.0 | 0.0 | 0.00 | 0.00 | 0.00 | 79 | 1012.5 |
| 20260508010152 | 5 | 42 | 0.0 | 0.0 | 0.00 | 0.00 | 0.00 | 79 | 1012.5 |
| 20260508005655 | 5 | 46 | 0.0 | 0.0 | 0.00 | 0.00 | 0.00 | 78 | 1012.6 |
| 20260508005144 | 5 | 41 | 0.0 | 0.0 | 0.00 | 0.00 | 0.00 | 78 | 1012.6 |
| 20260508004649 | 5 | 42 | 0.0 | 0.0 | 0.00 | 0.00 | 0.00 | 78 | 1012.6 |
| 20260508004148 | 5 | 41 | 0.0 | 0.0 | 0.00 | 0.00 | 0.00 | 78 | 1012.6 |
| 20260508003654 | 5 | 42 | 0.0 | 0.0 | 0.00 | 0.00 | 0.00 | 78 | 1012.6 |
| 20260508003158 | 5 | 42 | 0.0 | 0.0 | 0.00 | 0.00 | 0.00 | 78 | 1012.6 |
| 20260508002643 | 5 | 45 | 0.0 | 0.0 | 0.00 | 0.00 | 0.00 | 78 | 1012.6 |
| 20260508002149 | 5 | 42 | 0.0 | 0.0 | 0.00 | 0.00 | 0.00 | 78 | 1012.6 |
| 20260508001652 | 5 | 41 | 0.0 | 0.0 | 0.00 | 0.00 | 0.00 | 78 | 1012.6 |
| 20260508001140 | 6 | 41 | 0.0 | 0.0 | 0.00 | 0.00 | 0.00 | 78 | 1013.6 |
| 20260508000646 | 6 | 360 | 0.0 | 0.0 | 0.00 | 0.00 | 0.00 | 78 | 1013.6 |
| 20260508000201 | 6 | 42 | 0.0 | 0.0 | 0.00 | 0.00 | 0.00 | 78 | 1013.6 |
| 20260507235648 | 6 | 42 | 0.0 | 0.0 | 0.00 | 0.00 | 0.00 | 78 | 1013.8 |
| 20260507235153 | 6 | 42 | 0.0 | 0.0 | 0.00 | 0.00 | 0.00 | 78 | 1013.8 |
| 20260507234655 | 6 | 42 | 0.0 | 0.0 | 0.00 | 0.00 | 0.00 | 78 | 1013.8 |
| 20260507234155 | 6 | 41 | 0.0 | 0.0 | 0.00 | 0.00 | 0.00 | 78 | 1013.8 |
| 20260507233643 | 6 | 41 | 0.0 | 0.0 | 0.00 | 0.00 | 0.00 | 78 | 1013.8 |
| 20260507233158 | 6 | 41 | 0.0 | 0.0 | 0.00 | 0.00 | 0.00 | 77 | 1013.8 |
| 20260507232643 | 6 | 42 | 0.0 | 0.0 | 0.00 | 0.00 | 0.00 | 77 | 1013.8 |
| 20260507232155 | 6 | 42 | 0.0 | 0.0 | 0.00 | 0.00 | 0.00 | 77 | 1013.8 |
| 20260507231646 | 7 | 41 | 0.0 | 0.0 | 0.00 | 0.00 | 0.00 | 77 | 1013.8 |
| 20260507231148 | 7 | 41 | 0.0 | 0.0 | 0.00 | 0.00 | 0.00 | 77 | 1013.1 |
| 20260507230701 | 7 | 41 | 0.0 | 0.0 | 0.00 | 0.00 | 0.00 | 76 | 1013.1 |
| 20260507230146 | 7 | 42 | 0.0 | 0.0 | 0.00 | 0.00 | 0.00 | 76 | 1013.1 |
| 20260507225659 | 7 | 41 | 0.0 | 0.0 | 0.00 | 0.00 | 0.00 | 76 | 1013.9 |
| 20260507225154 | 7 | 42 | 0.0 | 0.0 | 0.00 | 0.00 | 0.00 | 75 | 1013.9 |
| 20260507224659 | 7 | 42 | 0.0 | 0.0 | 0.00 | 0.00 | 0.00 | 75 | 1013.9 |
| 20260507224143 | 7 | 41 | 0.0 | 0.0 | 0.00 | 0.00 | 0.00 | 75 | 1013.9 |
| 20260507223729 | 8 | 42 | 0.0 | 0.0 | 0.00 | 0.00 | 0.00 | 75 | 1013.9 |
| 20260507223150 | 8 | 42 | 0.0 | 0.0 | 0.00 | 0.00 | 0.00 | 75 | 1013.9 |
| 20260507222640 | 8 | 41 | 0.0 | 0.0 | 0.00 | 0.00 | 0.00 | 75 | 1013.8 |
| 20260507222149 | 8 | 42 | 0.0 | 0.0 | 0.00 | 0.00 | 0.00 | 74 | 1013.8 |
| 20260507221658 | 8 | 41 | 0.0 | 0.0 | 0.00 | 0.00 | 0.00 | 74 | 1013.8 |
| 20260507221146 | 8 | 42 | 0.0 | 0.0 | 0.00 | 0.00 | 0.00 | 74 | 1013.6 |
| 20260507220646 | 8 | 42 | 0.0 | 0.0 | 0.00 | 0.00 | 0.00 | 74 | 1013.6 |
| 20260507220156 | 9 | 41 | 0.0 | 0.0 | 0.00 | 0.00 | 0.00 | 74 | 1013.6 |
| 20260507215643 | 9 | 42 | 0.0 | 0.0 | 0.00 | 0.00 | 0.00 | 75 | 1013.6 |
| 20260507215148 | 9 | 41 | 0.0 | 0.0 | 0.00 | 0.00 | 0.00 | 75 | 1013.6 |
| 20260507214657 | 9 | 42 | 0.0 | 0.0 | 0.00 | 0.00 | 0.00 | 75 | 1013.6 |
| 20260507214157 | 9 | 41 | 0.0 | 0.0 | 0.00 | 0.00 | 0.00 | 75 | 1013.5 |
| 20260507213648 | 9 | 41 | 0.0 | 0.0 | 0.00 | 0.00 | 0.00 | 75 | 1013.5 |
| 20260507213141 | 9 | 42 | 0.0 | 0.0 | 0.00 | 0.00 | 0.00 | 76 | 1013.5 |
| 20260507212655 | 9 | 42 | 0.0 | 0.0 | 0.00 | 0.00 | 0.00 | 76 | 1013.6 |
| 20260507212146 | 9 | 41 | 0.0 | 0.0 | 0.00 | 0.00 | 0.00 | 76 | 1013.6 |
| 20260507211658 | 10 | 42 | 0.0 | 0.0 | 0.00 | 0.00 | 0.00 | 76 | 1013.6 |
| 20260507211143 | 10 | 41 | 0.0 | 0.0 | 0.00 | 0.00 | 0.00 | 76 | 1014.1 |
| 20260507210654 | 10 | 41 | 0.0 | 0.0 | 0.00 | 0.00 | 0.00 | 75 | 1014.1 |
| 20260507210159 | 10 | 41 | 0.0 | 0.0 | 0.00 | 0.00 | 0.00 | 75 | 1014.1 |
| 20260507205655 | 10 | 360 | 0.0 | 0.0 | 0.00 | 0.00 | 0.00 | 75 | 1014.0 |
| 20260507205144 | 10 | 41 | 0.0 | 0.0 | 0.00 | 0.00 | 0.00 | 75 | 1014.0 |
| 20260507204653 | 10 | 41 | 0.0 | 0.0 | 0.00 | 0.00 | 0.00 | 75 | 1014.0 |
| 20260507204143 | 10 | 43 | 0.0 | 0.0 | 0.00 | 0.00 | 0.00 | 74 | 1013.9 |
| 20260507203648 | 10 | 41 | 0.0 | 0.0 | 0.00 | 0.00 | 0.00 | 74 | 1013.9 |
| 20260507203143 | 10 | 41 | 0.0 | 0.0 | 0.00 | 0.00 | 0.00 | 74 | 1013.9 |
| 20260507202647 | 10 | 41 | 0.0 | 0.0 | 0.00 | 0.00 | 0.00 | 74 | 1013.9 |
| 20260507201649 | 10 | 41 | 0.0 | 0.0 | 0.00 | 0.00 | 0.00 | 74 | 1013.9 |
| 20260507201157 | 10 | 41 | 0.0 | 0.0 | 0.00 | 0.00 | 0.00 | 74 | 1013.9 |
| 20260507200700 | 10 | 41 | 0.0 | 0.0 | 0.00 | 0.00 | 0.00 | 74 | 1013.9 |
| 20260507200159 | 10 | 41 | 0.0 | 0.0 | 0.00 | 0.00 | 0.00 | 74 | 1013.9 |
| 20260507195642 | 10 | 41 | 0.0 | 0.0 | 0.00 | 0.00 | 0.00 | 73 | 1013.5 |
| 20260507195148 | 10 | 40 | 0.0 | 0.0 | 0.00 | 0.00 | 0.00 | 73 | 1013.5 |
| 20260507194656 | 10 | 40 | 0.0 | 0.0 | 0.00 | 0.00 | 0.00 | 72 | 1013.5 |
| 20260507194145 | 10 | 38 | 0.0 | 0.0 | 0.00 | 0.00 | 0.00 | 72 | 1013.3 |
| 20260507193652 | 10 | 41 | 0.0 | 0.0 | 0.00 | 0.00 | 0.00 | 72 | 1013.3 |
| 20260507193202 | 10 | 41 | 0.0 | 0.0 | 0.00 | 0.00 | 0.00 | 71 | 1013.3 |
| 20260507192650 | 10 | 41 | 0.0 | 0.0 | 0.00 | 0.00 | 0.00 | 71 | 1013.3 |
| 20260507192201 | 10 | 360 | 0.0 | 0.0 | 0.00 | 0.00 | 0.00 | 71 | 1013.3 |
| 20260507191659 | 10 | 42 | 0.0 | 0.0 | 0.00 | 0.00 | 0.00 | 70 | 1013.3 |
| 20260507191145 | 10 | 42 | 0.0 | 0.0 | 0.00 | 0.00 | 0.00 | 70 | 1012.8 |
| 20260507190650 | 11 | 41 | 0.0 | 0.0 | 0.00 | 0.00 | 0.00 | 70 | 1012.8 |
| 20260507190203 | 11 | 42 | 0.0 | 0.0 | 0.00 | 0.00 | 0.00 | 69 | 1012.8 |
| 20260507185700 | 11 | 42 | 0.0 | 0.0 | 0.00 | 0.00 | 0.00 | 69 | 1012.6 |
| 20260507185140 | 11 | 42 | 0.0 | 0.0 | 0.00 | 0.00 | 0.00 | 69 | 1012.6 |
| 20260507184645 | 11 | 29 | 0.0 | 0.0 | 0.00 | 0.00 | 0.00 | 69 | 1012.6 |
| 20260507184154 | 11 | 25 | 0.0 | 0.0 | 0.00 | 0.00 | 0.00 | 69 | 1012.6 |
| 20260507183659 | 11 | 36 | 0.0 | 0.0 | 0.00 | 0.00 | 0.00 | 69 | 1012.6 |
| 20260507183147 | 11 | 26 | 0.0 | 0.0 | 0.00 | 0.00 | 0.00 | 69 | 1012.6 |
| 20260507182649 | 11 | 360 | 0.0 | 0.0 | 0.00 | 0.00 | 0.00 | 69 | 1012.1 |
| 20260507182153 | 11 | 348 | 1.6 | 0.0 | 0.00 | 0.00 | 0.00 | 69 | 1012.1 |
| 20260507181656 | 11 | 18 | 1.6 | 0.0 | 0.00 | 0.00 | 0.00 | 69 | 1012.1 |
| 20260507181150 | 12 | 346 | 0.0 | 0.0 | 0.00 | 0.00 | 0.00 | 69 | 1012.1 |
| 20260507180645 | 12 | 30 | 0.0 | 0.0 | 0.00 | 0.00 | 0.00 | 69 | 1012.1 |
| 20260507180158 | 12 | 5 | 0.0 | 0.0 | 0.00 | 0.00 | 0.00 | 69 | 1012.1 |
| 20260507175649 | 12 | 5 | 1.6 | 0.0 | 0.00 | 0.00 | 0.00 | 69 | 1012.1 |
| 20260507175155 | 12 | 336 | 1.6 | 0.0 | 0.00 | 0.00 | 0.00 | 69 | 1012.1 |
| 20260507174639 | 12 | 360 | 1.6 | 0.0 | 0.00 | 0.00 | 0.00 | 68 | 1012.1 |
| 20260507174144 | 12 | 336 | 1.6 | 0.0 | 0.00 | 0.00 | 0.00 | 67 | 1011.7 |
| 20260507173652 | 12 | 5 | 1.6 | 0.0 | 0.00 | 0.00 | 0.00 | 67 | 1011.7 |
| 20260507173200 | 12 | 326 | 1.6 | 0.0 | 0.00 | 0.00 | 0.00 | 66 | 1011.7 |
| 20260507172657 | 13 | 5 | 1.6 | 0.0 | 0.00 | 0.00 | 0.00 | 66 | 1011.9 |
| 20260507172201 | 13 | 360 | 0.0 | 0.0 | 0.00 | 0.00 | 0.00 | 65 | 1011.9 |
| 20260507171644 | 13 | 341 | 0.0 | 0.0 | 0.00 | 0.00 | 0.00 | 65 | 1011.9 |
| 20260507171201 | 13 | 336 | 0.0 | 0.0 | 0.00 | 0.00 | 0.00 | 64 | 1011.8 |
| 20260507170647 | 13 | 319 | 0.0 | 0.0 | 0.00 | 0.00 | 0.00 | 65 | 1011.8 |
| 20260507170148 | 13 | 336 | 0.0 | 0.0 | 0.00 | 0.00 | 0.00 | 64 | 1011.8 |
| 20260507165654 | 13 | 337 | 1.6 | 0.0 | 0.00 | 0.00 | 0.00 | 65 | 1011.5 |
| 20260507165142 | 13 | 355 | 1.6 | 0.0 | 0.00 | 0.00 | 0.00 | 63 | 1011.5 |
| 20260507164650 | 13 | 307 | 1.6 | 0.0 | 0.00 | 0.00 | 0.00 | 63 | 1011.5 |
| 20260507164156 | 13 | 46 | 1.6 | 0.0 | 0.00 | 0.00 | 0.00 | 63 | 1011.3 |
| 20260507163643 | 13 | 331 | 1.6 | 0.0 | 0.00 | 0.00 | 0.00 | 62 | 1011.3 |
| 20260507163145 | 14 | 322 | 1.6 | 0.0 | 0.00 | 0.00 | 0.00 | 61 | 1011.3 |
| 20260507162651 | 15 | 344 | 1.6 | 0.0 | 0.00 | 0.00 | 0.00 | 62 | 1011.3 |
| 20260507162200 | 15 | 360 | 1.6 | 0.0 | 0.00 | 0.00 | 0.00 | 62 | 1011.3 |
| 20260507161648 | 14 | 360 | 3.2 | 0.0 | 0.00 | 0.00 | 0.00 | 62 | 1011.3 |
| 20260507161154 | 14 | 337 | 1.6 | 0.0 | 0.00 | 0.00 | 0.00 | 63 | 1011.2 |
| 20260507160653 | 13 | 360 | 1.6 | 0.0 | 0.00 | 0.00 | 0.00 | 63 | 1011.2 |
| 20260507160159 | 14 | 333 | 1.6 | 0.0 | 0.00 | 0.00 | 0.00 | 61 | 1011.2 |
| 20260507155700 | 15 | 346 | 1.6 | 0.0 | 0.00 | 0.00 | 0.00 | 61 | 1011.4 |
| 20260507155143 | 15 | 346 | 4.8 | 0.0 | 0.00 | 0.00 | 0.00 | 59 | 1011.4 |
| 20260507154655 | 14 | 298 | 6.4 | 0.0 | 0.00 | 0.00 | 0.00 | 60 | 1011.4 |
| 20260507154200 | 13 | 290 | 4.8 | 0.0 | 0.00 | 0.00 | 0.00 | 61 | 1011.4 |